World > North America > United States > Illinois > Carrier Mills  

Carrier Mills, IL Hourly Weather Updates

Feedback E-mail the Weather

Quick Clicks

Carrier Mills, IL Weather Maps

°F °C°F °C
Carrier Mills Weather Map
UTC Time: 6/22/2024, 03:52
Your Time:

Carrier Mills, IL Regional Weather

Expires:202406220400;;443338
ASUS43 KLOT 220310
RWRIL 

ILLINOIS REGIONAL WEATHER ROUNDUP
NATIONAL WEATHER SERVICE CHICAGO/ROMEOVILLE IL
1000 PM CDT FRI JUN 21 2024

NOTE: "FAIR" INDICATES FEW OR NO CLOUDS BELOW 12,000 FEET WITH NO
SIGNIFICANT WEATHER AND/OR OBSTRUCTIONS TO VISIBILITY.

* THESE STATIONS ARE NOT UNDER NWS QUALITY CONTROL. THEY ALSO MAY NOT
  REPORT WEATHER SUCH AS PRECIPITATION OR FOG.


ILZ064>066-069>071-074>076-080>082-084>086-088>090-092>094-220400-
SOUTH-CENTRAL ILLINOIS
  
CITY           SKY/WX    TMP DP  RH WIND       PRES   REMARKS
CARBONDALE     CLEAR     77  70  79 CALM      30.11R TC  25           
CAIRO*         CLEAR     77  74  91 CALM      30.11R TC  25           
EFFINGHAM*     CLEAR     80  65  61 S3        30.11S HX  81  TC  26   
MARION         CLEAR     76  70  82 CALM      30.12S TC  24           
MT. VERNON     CLEAR     74  70  87 CALM      30.12R TC  23           
CENTRALIA*     CLEAR     79  67  67 S5        30.11R HX  81  TC  26   
METROPOLIS*    CLEAR     74  73  96 CALM      30.12R TC  23           
$$


SKY/WX - Weather  TMP - Temperature  DP - Dew Point  RH - Humidity
WIND - Wind Direction/Speed PRES - Barometric Pressure VSB - Visibility
WCI - Wind Chill Index E13G22 Wind - East Wind 13 mph/Gusts of 22 mph

Trending Headlines

Trending Entertainment Headlines

Carrier Mills Radar Loop

Use the map search tool if you want to place a location marker on the radar map...

Carrier Mills Quick Facts

National Two Day Weather Forecast


E-mail the Carrier Mills Weather Forecast

Voice your opinion or tell us about page issues...